Location: Bernay
(48.6766°N, 2.9386°E)
Time: 22:03:02
(UTC+00:00)

SPOT 1/Viking Rocket - Pass Details

Date: 12 January 2026
Orbit: 772 x 789 km, 98.2° (Epoch: 17 February)

Event Time Altitude Azimuth Distance (km) Brightness Sun altitude
Rises 16:57:54 0° 139° (SE) 3,262 6.6 -6.9°
Reaches altitude 10° 17:00:21 10° 131° (SE) 2,335 5.8 -7.3°
Maximum altitude 17:05:02 37° 66° (ENE) 1,209 4.0 -8.0°
Drops below altitude 10° 17:09:44 10° 0° (N) 2,339 5.8 -8.7°
Sets 17:12:11 0° 353° (N) 3,269 6.6 -9.1°
